カタログに戻る

CZ-4 DEB

運用中SSO
NORAD 20793·DEBRIS·🇨🇳 China

打ち上げ Sep 3, 1990 から Taiyuan Satellite Launch Center

Loading…

次のパス (今後24時間)

TLE

最新Source: Space-Track

元期: Sep 13, 2026, 22:44 UTC

1 20793U 90081F   26256.94788760  .00000525  00000-0  26171-3 0  9991
2 20793  98.7825 244.3614 0020685  80.8855 279.4661 14.21079442856098

AllMySatでCZ-4 DEBをリアルタイム追跡

Download on the App Store